Voltar ao catálogo

TITAN 3C TRANSTAGE DEB

LostHEO
NORAD 26528·DEBRIS·🇺🇸 United States

Lançado Dec 21, 1965 de Cape Canaveral Space Force Station

Loading…

Próximas Passagens (próximas 24 horas)

TLE

ObsoletoSource: Space-Track

Época: Mar 8, 2026, 05:17 UTC

1 26528U 65108AP  26067.22045376 -.00000175  00000-0 -37199-2 0  9999
2 26528  27.5724 324.5090 6658673 235.8381 336.4465  2.68043131265738

Acompanhe TITAN 3C TRANSTAGE DEB em tempo real com AllMySat

Download on the App Store